KR0L-13 Weather Reports


time (UTC)temp
F
wind
direction
speed
knots
gust
knots
rain 1hr
in
rain 24hr
in
rain mn
in
humidity
%
barometer
mb
20260507160021 60 158 8.7 14.8 0.00 0.00 0.00 57 1016.8
20260507155021 59 180 9.6 15.6 0.00 0.00 0.00 57 1016.9
20260507154021 59 158 10.4 15.6 0.00 0.00 0.00 58 1016.9
20260507153021 58 180 9.6 16.5 0.00 0.00 0.00 59 1017.0
20260507152021 57 180 7.8 13.0 0.00 0.00 0.00 62 1017.0
20260507151021 57 180 7.0 13.9 0.00 0.00 0.00 64 1017.4
20260507150020 57 158 9.6 15.6 0.00 0.00 0.00 65 1017.5
20260507145021 56 158 8.7 15.6 0.00 0.00 0.00 65 1017.4
20260507144021 55 180 5.2 11.3 0.00 0.00 0.00 68 1017.6
20260507143021 54 180 6.1 15.6 0.00 0.00 0.00 70 1017.6
20260507142020 53 180 7.8 13.9 0.00 0.00 0.00 72 1017.7
20260507141021 53 158 7.0 10.4 0.00 0.00 0.00 73 1017.8
20260507140020 52 180 5.2 11.3 0.00 0.00 0.00 77 1018.1
20260507135020 51 180 7.0 13.0 0.00 0.00 0.00 78 1018.0
20260507134020 50 180 4.3 9.6 0.00 0.00 0.00 80 1018.2
20260507133020 49 180 5.2 10.4 0.00 0.00 0.00 82 1018.1
20260507132020 48 180 5.2 8.7 0.00 0.00 0.00 85 1018.1
20260507131020 47 180 4.3 7.8 0.00 0.00 0.00 86 1018.1
20260507130020 46 180 4.3 7.8 0.00 0.00 0.00 87 1018.2
20260507125020 45 158 4.3 7.0 0.00 0.00 0.00 89 1017.9
20260507124020 44 158 3.5 6.1 0.00 0.00 0.00 90 1018.0
20260507123020 44 158 3.5 6.1 0.00 0.00 0.00 90 1018.0
20260507122020 43 158 2.6 4.3 0.00 0.00 0.00 90 1018.0
20260507121020 42 158 1.7 4.3 0.00 0.00 0.00 91 1018.0
20260507120020 42 180 1.7 3.5 0.00 0.00 0.00 91 1018.0
20260507115020 41 180 0.9 2.6 0.00 0.00 0.00 92 1017.7
20260507114020 40 180 0.9 2.6 0.00 0.00 0.00 92 1017.6
20260507113020 40 180 0.9 1.7 0.00 0.00 0.00 92 1017.9
20260507112020 40 180 0.9 0.9 0.00 0.00 0.00 92 1017.9
20260507111020 40 181 0.0 0.0 0.00 0.00 0.00 91 1017.8
20260507110020 41 181 0.0 0.0 0.00 0.00 0.00 91 1017.8
20260507105020 41 181 0.0 0.0 0.00 0.00 0.00 91 1017.7
20260507104020 41 181 0.0 0.0 0.00 0.00 0.00 91 1017.8
20260507103020 41 181 0.0 0.0 0.00 0.00 0.00 91 1017.7
20260507102020 41 181 0.0 0.0 0.00 0.00 0.00 90 1017.7
20260507101020 42 181 0.0 0.0 0.00 0.00 0.00 90 1017.8
20260507100020 42 181 0.0 0.0 0.00 0.00 0.00 90 1017.8
20260507095020 42 181 0.0 0.0 0.00 0.00 0.00 89 1017.9
20260507094020 42 181 0.0 0.0 0.00 0.00 0.00 89 1018.0
20260507093020 42 181 0.0 0.0 0.00 0.00 0.00 89 1018.0
20260507092020 43 181 0.0 0.0 0.00 0.00 0.00 89 1018.3
20260507091020 43 181 0.0 0.0 0.00 0.00 0.00 89 1018.5
20260507090020 43 181 0.0 0.0 0.00 0.00 0.00 89 1018.6
20260507085020 43 194 0.0 0.0 0.00 0.00 0.00 88 1018.6
20260507084020 43 171 0.0 0.0 0.00 0.00 0.00 88 1018.7
20260507083020 43 171 0.0 0.0 0.00 0.00 0.00 87 1018.6
20260507082020 44 171 0.0 0.0 0.00 0.00 0.00 87 1018.7
20260507081022 43 171 0.0 0.0 0.00 0.00 0.00 87 1018.8
20260507080022 43 171 0.0 0.0 0.00 0.00 0.00 85 1018.8
20260507075022 44 171 0.0 0.0 0.00 0.00 0.00 84 1018.8
20260507074022 44 171 0.0 0.0 0.00 0.00 0.00 85 1018.7
20260507073022 44 171 0.0 0.0 0.00 0.00 0.00 84 1019.0
20260507072022 44 171 0.0 0.0 0.00 0.00 0.00 83 1019.1
20260507071022 45 171 0.0 0.0 0.00 0.00 0.00 82 1019.2
20260507070022 45 171 0.0 0.0 0.00 0.00 0.00 82 1019.4
20260507065022 46 171 0.0 0.0 0.00 0.00 0.00 82 1019.5
20260507064022 46 171 0.0 0.0 0.00 0.00 0.00 82 1019.6
20260507063022 46 171 0.0 0.0 0.00 0.01 0.00 83 1019.5
20260507062022 45 281 0.0 0.0 0.00 0.02 0.00 84 1019.3
20260507061022 45 281 0.0 0.0 0.00 0.03 0.00 85 1019.3
20260507060022 45 281 0.0 0.0 0.00 0.03 0.00 85 1019.4
20260507055022 46 281 0.0 0.0 0.00 0.04 0.00 85 1019.3
20260507054022 46 281 0.0 0.0 0.00 0.05 0.00 87 1019.4
20260507053022 46 281 0.0 0.0 0.00 0.06 0.00 88 1019.3
20260507052022 46 281 0.0 0.0 0.00 0.06 0.00 87 1019.3
20260507051022 46 281 0.0 0.0 0.00 0.06 0.00 87 1019.3
20260507050022 46 281 0.0 0.0 0.00 0.06 0.06 87 1019.2
20260507045022 46 281 0.0 0.0 0.00 0.06 0.06 86 1019.2
20260507044022 46 281 0.0 0.0 0.00 0.06 0.06 85 1019.2
20260507043022 46 281 0.0 0.0 0.00 0.06 0.06 84 1019.0
20260507042022 46 281 0.0 0.0 0.00 0.06 0.06 83 1018.9
20260507041021 46 281 0.0 0.0 0.00 0.06 0.06 81 1019.0
20260507040022 46 281 0.0 0.0 0.00 0.07 0.06 79 1019.0
20260507035021 46 281 0.0 0.0 0.00 0.08 0.06 78 1019.1
20260507034021 46 281 0.0 0.0 0.00 0.09 0.06 79 1019.2
20260507033021 45 281 0.0 0.0 0.00 0.11 0.06 80 1019.1
20260507032021 45 281 0.0 0.0 0.00 0.12 0.06 79 1019.0
20260507031022 45 281 0.0 0.0 0.00 0.12 0.06 77 1018.8
20260507030021 46 281 0.0 0.0 0.00 0.12 0.06 74 1018.8
20260507025021 48 281 0.0 0.0 0.00 0.12 0.06 70 1018.9
20260507024021 49 281 0.0 0.0 0.00 0.12 0.06 67 1019.0
20260507023021 49 281 0.0 0.0 0.00 0.12 0.06 68 1019.0
20260507022021 50 281 0.0 0.0 0.00 0.12 0.06 68 1018.9
20260507021021 51 281 0.0 0.0 0.00 0.12 0.06 63 1018.8
20260507020021 52 281 0.0 0.0 0.00 0.12 0.06 60 1018.8
20260507015021 53 281 0.0 0.0 0.00 0.12 0.06 58 1018.6
20260507014021 54 281 0.0 0.0 0.00 0.12 0.06 56 1018.5
20260507013021 55 281 0.0 0.0 0.00 0.12 0.06 55 1018.4
20260507012021 55 293 0.0 1.7 0.00 0.12 0.06 53 1018.4
20260507011021 56 315 0.9 4.3 0.00 0.12 0.06 52 1018.3
20260507010021 56 270 0.0 2.6 0.00 0.12 0.06 50 1018.4
20260507005021 56 338 2.6 5.2 0.00 0.12 0.06 49 1018.2
20260507004021 56 315 2.6 5.2 0.00 0.12 0.06 49 1018.2
20260507003021 57 293 2.6 5.2 0.00 0.12 0.06 48 1018.2
20260507002021 57 293 2.6 6.1 0.00 0.12 0.06 47 1018.1
20260507001021 57 293 2.6 4.3 0.00 0.12 0.06 45 1018.2
20260507000022 58 270 3.5 6.1 0.00 0.12 0.06 44 1018.3
20260506235021 59 315 4.3 7.8 0.00 0.12 0.06 44 1018.2
20260506234021 58 338 3.5 7.8 0.00 0.12 0.06 43 1018.2
20260506233021 58 315 4.3 7.8 0.00 0.12 0.06 44 1018.2
20260506232021 59 338 2.6 5.2 0.00 0.12 0.06 44 1018.2
20260506231021 59 293 5.2 10.4 0.00 0.12 0.06 44 1018.1
20260506230021 60 338 4.3 6.1 0.00 0.12 0.06 43 1018.3
20260506225021 59 293 2.6 6.1 0.00 0.12 0.06 46 1018.3
20260506224021 58 338 4.3 7.0 0.00 0.12 0.06 46 1017.9
20260506223021 58 315 3.5 6.1 0.00 0.12 0.06 46 1018.0
20260506222021 58 270 4.3 7.8 0.00 0.12 0.06 46 1018.1
20260506221021 58 270 5.2 8.7 0.00 0.12 0.06 46 1018.1
20260506220021 58 270 4.3 7.0 0.00 0.12 0.06 49 1018.1
20260506215021 58 270 3.5 6.1 0.00 0.12 0.06 49 1018.3
20260506214021 57 338 4.3 7.8 0.00 0.12 0.06 50 1018.3
20260506213021 58 338 2.6 7.8 0.00 0.12 0.06 51 1018.4
20260506212021 57 338 5.2 8.7 0.00 0.12 0.06 51 1018.4
20260506211021 57 315 4.3 9.6 0.00 0.12 0.06 49 1018.5
20260506210021 59 315 4.3 8.7 0.00 0.12 0.06 49 1018.7
20260506205021 59 270 4.3 8.7 0.00 0.12 0.06 51 1018.8
20260506204021 59 0 2.6 7.8 0.00 0.12 0.06 49 1018.9
20260506203021 58 270 4.3 8.7 0.00 0.12 0.06 51 1019.0
20260506202021 57 248 1.7 4.3 0.00 0.12 0.06 50 1019.0
20260506201021 58 315 3.5 7.0 0.00 0.12 0.06 49 1019.2
20260506200021 59 248 0.9 3.5 0.00 0.12 0.06 49 1019.4
20260506195021 59 315 2.6 6.1 0.00 0.12 0.06 48 1019.5
20260506194021 58 315 5.2 10.4 0.00 0.12 0.06 47 1019.6
20260506193021 58 0 5.2 8.7 0.00 0.12 0.06 51 1019.6
20260506192021 58 23 2.6 7.8 0.00 0.12 0.06 49 1019.5
20260506191021 58 0 3.5 8.7 0.00 0.12 0.06 49 1019.7
20260506190021 57 23 1.7 5.2 0.00 0.12 0.06 49 1019.8
20260506185021 57 0 3.5 7.8 0.00 0.12 0.06 50 1019.7
20260506184021 57 338 7.0 12.2 0.00 0.12 0.06 47 1019.9
20260506183021 56 23 1.7 5.2 0.00 0.12 0.06 50 1019.8
20260506182021 56 338 5.2 8.7 0.00 0.13 0.06 50 1019.9
20260506181021 55 248 3.5 7.0 0.00 0.13 0.06 54 1020.0
20260506180021 55 0 4.3 9.6 0.00 0.13 0.06 50 1020.1
20260506175021 55 248 3.5 7.8 0.00 0.13 0.06 55 1020.3
20260506174021 55 315 5.2 9.6 0.00 0.13 0.06 52 1020.3
20260506173021 54 315 4.3 7.8 0.00 0.13 0.06 55 1020.3
20260506172021 54 0 4.3 7.8 0.00 0.13 0.06 60 1020.3
20260506171020 54 0 3.5 7.0 0.00 0.13 0.06 62 1020.3
20260506170021 53 293 1.7 6.1 0.00 0.13 0.06 67 1020.4
20260506165020 51 270 2.6 7.8 0.00 0.14 0.06 67 1020.3
20260506164020 51 315 3.5 6.1 0.00 0.14 0.06 68 1020.4
20260506163020 51 293 2.6 4.3 0.00 0.14 0.06 71 1020.5
20260506162020 50 248 1.7 6.1 0.00 0.18 0.06 73 1020.5
20260506161020 50 315 1.7 3.5 0.00 0.22 0.06 74 1020.4